maki ligon

maki ligon

Views:
11,953,399
Subscribers:
29,772
Videos:
695
Duration:
1:09:14:35
Created on ● Channel Link: https://www.youtube.com/channel/UCB1XBWo7OMmvAsbiwdNpx1Q





All Videos by maki ligon



PublishedVideo TitleDurationViewsLikedCategoryGame
2019-01-20Chaoz Fantasy (E4/4tless Mix) - Geometry Dash2:141,52299.47%
2019-01-19Beats vs. The Big Beat - DJ Hero2:341,73599.01%
2019-01-18Butterfly Doors - Unfunny Irrelavant Stale Sayonara Mashups2:202,85098.41%
2019-01-17Super Mario Bros. Music - Invincible0:264,47799.47%
2019-01-16Kraid's Lair - Metroid0:142,470100.00%
2019-01-15Dreams of Our Generation (Night Walk) - Rhythm Heaven Fever2:582,84099.57%
2019-01-14Renai Circulation - Bakemonogatari Portable3:114,02299.14%
2019-01-13Crazy Backup Dancers - Touhou 16: Hidden Star in Four Seasons0:184,87999.22% Hidden Star in Four Seasons
2019-01-12Main Theme (2012 Version) - ROBLOX2:164,48399.71%
2019-01-11Respect my Crypn - Unfunny Sayonara Mashups in 2019: The Game2:233,58896.85%
2019-01-10Megalovania (JP Version) - Earthbound Halloween Hack1:534,786100.00% Earthbound
2019-01-09Title Theme - 7 GRAND DAD0:164,69199.56%
2019-01-08Just Mo Nika - Doki Doki L̶i̶t̶e̶r̶a̶t̶u̶r̶e̶ ̶C̶l̶u̶b̶ Just Monika!3:165,70798.81%
2019-01-07Pump - Mafia City3:027,65198.63% Mafia
2019-01-06Dicko-nara Mode - Unfunny Sayo-nara Mashups in 2019: The Game5:076,58498.57%
2019-01-05Megalovania (Pendulum Mix) - Undertale3:326,81899.26% Undertale
2019-01-04Nickelodeon Theme (2017 - Present) - Nickelodeon0:053,89399.56%
2019-01-03Help Me Help You - Unfunny Sayo-nara Mashups: The Game2:312,65598.73% Let's Play
2019-01-02Super Mario Bros. Music - Invincible (JP Version)0:263,52399.16% Super Mario Bros.
2019-01-01Darude - Sandstorm2:404,89099.85%
2018-12-31PlayStation Startup (Beta Mix) - Console BIOS/Startup Fanfare0:192,45999.02% Let's Play
2018-12-30Nintendo GameCube Startup - Console BIOS/Startup Fanfare0:063,01599.57%
2018-12-29Sting - Shape of My Heart (Definetly not Lucid Dreams Version) (HQ Audio)4:231,97399.53%
2018-12-28Senbonzakura - Hatsune Miku: Project Mirai DX4:091,76398.50%
2018-12-27The Office Theme Song - The Office0:403,24699.78%
2018-12-26Crossing Field - Sword Art Online3:063,19799.06%
2018-12-25Emote: Dance Moves (Snail Mix) - Fortnite0:132,77299.44% Fortnite
2018-12-24Neil Cicierega - Smash Christmas (Pitch Corrected) (HQ Audio)3:211,83599.24%
2018-12-23Through The Fire and Flames (2nd Riff) - Guitar Hero III: Legends of Rock0:252,218100.00%
2018-12-22San Andreas Theme Song - Grand Theft Auto: San Andreas1:043,33599.18% Grand Theft Auto: San Andreas
2018-12-21Dire Dire Docks (OST Version) - Super Mario 642:333,79099.05% Super Mario 64
2018-12-20Dear... every day (WTF Mix) - Hyperdimension Neptunia; Producing Perfection1:442,21998.97% Hyperdimension Neptunia: Producing Perfection
2018-12-19Katsusha Retro (Same BPM lmao) - Tetris DS (THQ) (Unreleased)1:002,215100.00%
2018-12-18Tension - Mad Father2:522,31897.28%
2018-12-17Nyeh Heh Heh! (Beta Mix) - Undertale0:464,49099.77% Undertale
2018-12-16Regular Battle - Pokedimension; Rom And Ram2:272,335100.00%
2018-12-15Nasty vs. D.A.N.C.E. - DJ Hero 23:402,153100.00%
2018-12-14【東方Synthwave】 Night Stalker 「Maki Ligon」1:487,41598.06%
2018-12-13Emote: Dance Moves - Fortnite0:105,70099.25% Fortnite
2018-12-12Thank U Next - MTV Hits2:112,72898.87%
2018-12-11Love Colored Master Spark - Touhou 8: Imperishable Night0:205,71198.23% Imperishable Night
2018-12-10t-PORT - Shuric Scan1:012,36399.45%
2018-12-09Hip Shop - Deltarune0:425,701100.00% Deltarune
2018-12-08Squeaky Clean - Fortnite4:164,09198.13% Fortnite
2018-12-07Hit or Miss but its Nico Nico Nii0:1613,06595.94%
2018-12-06MINE DIAMONDS | miNECRAFT PARODY OF TAKE ON ME (Eurobeat Remix)3:594,19399.31% Minecraft
2018-12-05Septette for the Dead Princess - Touhou 6: the Embodiment of Scarlet Devil0:137,93899.30% The Embodiment of Scarlet Devil
2018-12-04Its Everyday Bro (Swedish Version) - Team 102:114,19499.31%
2018-12-03Title Screen - Pokemon Heart Gold/Soul Silver1:172,79398.86% Pokémon HeartGold and SoulSilver
2018-12-02Tori no Uta - Air4:272,90399.35%
2018-12-01Beginning - Deltarune1:005,69599.49% Deltarune
2018-11-30American Boy - DJ Hero 23:122,63199.53%
2018-11-29Fortnite - Dance Moves (Default Dance) Acapella0:079,08699.55% Fortnite
2018-11-28Crab Rave - Monstercat: Instinct4:256,08599.60%
2018-11-27The Sea Where One's Home Planet Reflects - Touhoutale2:015,51199.25%
2018-11-26The Circus - Deltarune1:044,63998.81% Deltarune
2018-11-25Blow Your Mind (Mwah) - Tik Tok3:226,59999.23%
2018-11-24Satori Maiden ~ 3rd Eye - Touhou 11: Subterranean Animism0:228,24998.39% Subterranean Animism
2018-11-23Sidetracked Day - osu!5:383,75199.18% osu!
2018-11-22Deltarune - Lancer Theme (Russian Hardbass Remix)2:0016,37498.76% Deltarune
2018-11-21Zeze - Tik Tok1:058,30398.61%
2018-11-20Megalovania (WTF No) - Undertale1:289,42098.57% Undertale
2018-11-19Before the Story - Deltarune1:324,43698.88% Deltarune
2018-11-18Card Castle - Deltarune1:065,71098.80% Deltarune
2018-11-17The World Sliding (Deltarune x Super Mario 64)3:2536,06499.62% Super Mario 64
2018-11-16145 Poodles - Vsauce1:353,67199.57%
2018-11-15Faith is for the Transient People - Touhou 10: Mountain of Faith0:1611,38997.83% Mountain of Faith
2018-11-14Hartmann's Youkai Girl - Touhou 11: Subterranean Animism0:2212,64498.76% Subterranean Animism
2018-11-13Gaster's Theme (What The hecc is after Gamma Mix) - Undertale0:415,757100.00% Undertale
2018-11-12POP/STARS - League Of Legends3:083,74899.04% League of Legends
2018-11-11Justin Bieber ft: Ludacris - Baby in the style of Post Malone Ft: Mr. Gus2:572,86198.58%
2018-11-10Poem Panic - Doki Doki Literature Club!1:4312,40399.59% Doki Doki Literature Club!
2018-11-09DespaciTOE - Tik Tok2:357,98097.63%
2018-11-08Rude Blaster - Deltarune2:497,73397.36% Deltarune
2018-11-07Card Castle - Tetrarune1:065,35199.49%
2018-11-06The Pierrot of the Star-Spangled Banner - Touhou 15: Legacy of Lunatic Kingdom3:588,09299.61% Legacy of Lunatic Kingdom
2018-11-05Lancer Theme (Overworld) (Offbeat lmao mix) - Deltarune0:527,59199.15% Deltarune
2018-11-04The World Revolving - Deltarune1:4413,24699.24% Deltarune
2018-11-03Something Just Like This - Painsmokers: The Game1:552,53398.74%
2018-11-02Don't Forget to Feed your Neopets - Neopets2:573,23797.66%
2018-11-01I Still Love You (I dont know lol mix) - Doki Doki Literature Club!0:406,510100.00% Doki Doki Literature Club!
2018-10-31Reptiles - Mortal Kombat: Songs Inspired by the Warriors4:072,273100.00%
2018-10-30Battle! (Red) - Pokémon HeartGold & SoulSilver2:123,394100.00% Pokémon HeartGold and SoulSilver
2018-10-29The Final Island - Pendulum 2: The Return5:292,840100.00%
2018-10-28No Mercy - Tik Tok2:4027,35396.40%
2018-10-27Main Theme - Bill Clinton0:25582,28098.44%
2018-10-26How to save Sayori's Life - I Improove DDLC Mashups: The Game3:424,30796.20% GuideDoki Doki Literature Club!
2018-10-25Snail's House -「My Story」(Megalovania Mix)2:475,41598.72%
2018-10-24Get Ready for This - Space Jam3:533,833100.00%
2018-10-23Ending Theme - Snailchan Adventure0:535,78499.57%
2018-10-22Cruel Angel Thesis (Epic same BPM lmao) - Neon Genesis Evangelion0:2511,60099.55%
2018-10-21Tetris Voices - Porter Robinson 2 Virtual Self: The Game2:282,595100.00%
2018-10-20The Next Episode - Tetris: Snoop Dogg Edition2:384,71299.77% Show
2018-10-19Avicii - Levels (HQ Audio)3:264,33799.36%
2018-10-18Beautiful Girls (Spanish Version) - SingStar Hottest Hits3:442,392100.00%
2018-10-17It's Raining Somewhere Else (Genocide Version) - Undertale4:125,593100.00% Undertale
2018-10-16Sayo-nara (no) - Doki Doki Literature Club!2:317,816100.00% Doki Doki Literature Club!
2018-10-15Complete Darkness - Touhou 2: Story of Eastern Wonderland1:205,58398.47%
2018-10-14BADAPPLEQUEST5:079,95899.66%
2018-10-13National Park - Pokémon Heart Gold & Soul Silver3:233,89699.71% Pokémon HeartGold and SoulSilver